Time,TemperatureF,DewpointF,PressureIn,WindDirection,WindDirectionDegrees,WindSpeedMPH,WindSpeedGustMPH,Humidity,HourlyPrecipIn,Conditions,Clouds,dailyrainin,SolarRadiationWatts/m^2,SoftwareType,DateUTC
2013-09-13 00:03:00,75.9,72.0,29.89,SSE,157,0.0,0.0,88,0.00,,,0.00,0,weatherlink.com 1.10,2013-09-13 04:03:00,
2013-09-13 00:18:00,75.6,72.0,29.88,SSE,157,0.0,0.0,89,0.00,,,0.00,0,weatherlink.com 1.10,2013-09-13 04:18:00,
2013-09-13 00:33:00,75.5,72.0,29.89,SSE,157,0.0,0.0,89,0.00,,,0.00,0,weatherlink.com 1.10,2013-09-13 04:33:00,
2013-09-13 00:48:00,75.3,72.0,29.89,SSE,157,0.0,0.0,90,0.00,,,0.00,0,weatherlink.com 1.10,2013-09-13 04:48:00,
2013-09-13 01:03:00,74.9,72.0,29.89,SSE,157,0.0,0.0,90,0.00,,,0.00,0,weatherlink.com 1.10,2013-09-13 05:03:00,
2013-09-13 01:18:00,75.0,72.0,29.89,SSE,157,0.0,0.0,91,0.00,,,0.00,0,weatherlink.com 1.10,2013-09-13 05:18:00,
2013-09-13 01:33:00,75.1,72.0,29.89,SSE,157,0.0,0.0,91,0.00,,,0.00,0,weatherlink.com 1.10,2013-09-13 05:33:00,
2013-09-13 01:48:00,75.3,73.0,29.89,SSE,157,0.0,0.0,91,0.00,,,0.00,0,weatherlink.com 1.10,2013-09-13 05:48:00,
2013-09-13 02:03:00,75.4,73.0,29.88,SSE,157,0.0,1.0,91,0.00,,,0.00,0,weatherlink.com 1.10,2013-09-13 06:03:00,
2013-09-13 02:18:00,75.5,73.0,29.88,SSE,157,0.0,1.0,91,0.00,,,0.00,0,weatherlink.com 1.10,2013-09-13 06:18:00,
2013-09-13 02:33:00,75.5,73.0,29.89,SSE,157,0.0,1.0,91,0.00,,,0.00,0,weatherlink.com 1.10,2013-09-13 06:33:00,
2013-09-13 02:48:00,75.3,73.0,29.88,SSE,157,0.0,0.0,91,0.00,,,0.00,0,weatherlink.com 1.10,2013-09-13 06:48:00,
2013-09-13 03:03:00,75.2,73.0,29.88,SSE,157,0.0,0.0,91,0.00,,,0.00,0,weatherlink.com 1.10,2013-09-13 07:03:00,
2013-09-13 03:18:00,74.9,72.0,29.87,SSE,157,0.0,0.0,91,0.00,,,0.00,0,weatherlink.com 1.10,2013-09-13 07:18:00,
2013-09-13 03:33:00,74.8,72.0,29.86,SSE,157,0.0,0.0,92,0.00,,,0.00,0,weatherlink.com 1.10,2013-09-13 07:33:00,
2013-09-13 03:48:00,74.6,72.0,29.86,SSE,157,0.0,0.0,92,0.00,,,0.00,0,weatherlink.com 1.10,2013-09-13 07:48:00,
2013-09-13 04:03:00,74.5,72.0,29.85,SSE,157,0.0,0.0,92,0.00,,,0.00,0,weatherlink.com 1.10,2013-09-13 08:03:00,
2013-09-13 04:18:00,74.4,72.0,29.85,SSE,157,0.0,0.0,92,0.00,,,0.00,0,weatherlink.com 1.10,2013-09-13 08:18:00,
2013-09-13 04:33:00,74.3,72.0,29.85,SSE,157,0.0,0.0,93,0.00,,,0.00,0,weatherlink.com 1.10,2013-09-13 08:33:00,
2013-09-13 04:48:00,74.3,72.0,29.85,SSE,157,0.0,1.0,93,0.00,,,0.00,0,weatherlink.com 1.10,2013-09-13 08:48:00,
2013-09-13 05:03:00,74.2,72.0,29.85,SSE,157,0.0,0.0,93,0.00,,,0.00,0,weatherlink.com 1.10,2013-09-13 09:03:00,
2013-09-13 05:18:00,74.0,72.0,29.85,SSE,157,0.0,0.0,93,0.00,,,0.00,0,weatherlink.com 1.10,2013-09-13 09:18:00,
2013-09-13 05:33:00,73.9,72.0,29.85,SSE,157,0.0,0.0,93,0.00,,,0.00,0,weatherlink.com 1.10,2013-09-13 09:33:00,
2013-09-13 05:48:00,73.9,72.0,29.85,SSE,157,0.0,0.0,93,0.00,,,0.00,0,weatherlink.com 1.10,2013-09-13 09:48:00,
2013-09-13 06:03:00,73.8,72.0,29.86,SSE,157,0.0,0.0,93,0.00,,,0.00,0,weatherlink.com 1.10,2013-09-13 10:03:00,
2013-09-13 06:18:00,73.6,72.0,29.85,SSE,157,0.0,0.0,93,0.00,,,0.00,0,weatherlink.com 1.10,2013-09-13 10:18:00,
2013-09-13 06:33:00,73.5,72.0,29.85,SSE,157,0.0,0.0,94,0.00,,,0.00,0,weatherlink.com 1.10,2013-09-13 10:33:00,
2013-09-13 06:48:00,73.5,71.0,29.85,SSE,156,0.0,0.0,93,0.00,,,0.00,0,weatherlink.com 1.10,2013-09-13 10:48:00,
2013-09-13 07:03:00,73.3,72.0,29.85,SSE,156,0.0,0.0,94,0.00,,,0.00,0,weatherlink.com 1.10,2013-09-13 11:03:00,
2013-09-13 07:18:00,73.2,71.0,29.85,SSE,157,0.0,0.0,94,0.00,,,0.00,7,weatherlink.com 1.10,2013-09-13 11:18:00,
2013-09-13 07:33:00,73.1,71.0,29.85,SSE,157,0.0,0.0,94,0.00,,,0.00,16,weatherlink.com 1.10,2013-09-13 11:33:00,
2013-09-13 07:49:00,73.7,72.0,29.86,SSE,156,0.0,0.0,94,0.00,,,0.00,23,weatherlink.com 1.10,2013-09-13 11:49:00,
2013-09-13 08:04:00,74.2,72.0,29.86,SSE,157,0.0,0.0,94,0.00,,,0.00,120,weatherlink.com 1.10,2013-09-13 12:04:00,
2013-09-13 08:19:00,75.4,74.0,29.87,SSE,157,0.0,1.0,94,0.00,,,0.00,165,weatherlink.com 1.10,2013-09-13 12:19:00,
2013-09-13 08:34:00,76.4,75.0,29.87,SSE,157,0.0,1.0,94,0.00,,,0.00,90,weatherlink.com 1.10,2013-09-13 12:34:00,
2013-09-13 08:49:00,76.6,75.0,29.87,SSE,157,0.0,3.0,93,0.00,,,0.00,179,weatherlink.com 1.10,2013-09-13 12:49:00,
2013-09-13 09:04:00,77.1,75.0,29.87,SSE,157,0.0,0.0,92,0.00,,,0.00,83,weatherlink.com 1.10,2013-09-13 13:04:00,
2013-09-13 09:19:00,78.0,75.0,29.87,SSE,157,0.0,1.0,90,0.00,,,0.00,424,weatherlink.com 1.10,2013-09-13 13:19:00,
2013-09-13 09:34:00,79.3,75.0,29.88,SSE,157,0.0,2.0,86,0.00,,,0.00,330,weatherlink.com 1.10,2013-09-13 13:34:00,
2013-09-13 09:49:00,80.3,75.0,29.88,South,179,3.0,5.0,83,0.00,,,0.00,506,weatherlink.com 1.10,2013-09-13 13:49:00,
2013-09-13 10:04:00,81.9,75.0,29.88,SSW,202,0.0,2.0,80,0.00,,,0.00,527,weatherlink.com 1.10,2013-09-13 14:04:00,
2013-09-13 10:19:00,82.0,74.0,29.88,WSW,250,0.0,3.0,76,0.00,,,0.00,148,weatherlink.com 1.10,2013-09-13 14:19:00,
2013-09-13 10:34:00,83.1,74.0,29.87,SSW,196,0.0,3.0,75,0.00,,,0.00,664,weatherlink.com 1.10,2013-09-13 14:34:00,
2013-09-13 10:49:00,83.2,74.0,29.87,WSW,257,0.0,5.0,74,0.00,,,0.00,111,weatherlink.com 1.10,2013-09-13 14:49:00,
2013-09-13 11:04:00,85.0,74.0,29.88,SW,219,0.0,3.0,69,0.00,,,0.00,747,weatherlink.com 1.10,2013-09-13 15:04:00,
2013-09-13 11:19:00,84.8,74.0,29.87,SW,236,3.0,6.0,70,0.00,,,0.00,817,weatherlink.com 1.10,2013-09-13 15:19:00,
2013-09-13 11:34:00,85.1,74.0,29.87,South,178,0.0,4.0,69,0.00,,,0.00,789,weatherlink.com 1.10,2013-09-13 15:34:00,
2013-09-13 11:49:00,86.2,74.0,29.87,WSW,244,0.0,6.0,68,0.00,,,0.00,847,weatherlink.com 1.10,2013-09-13 15:49:00,
2013-09-13 12:04:00,86.8,73.0,29.87,West,259,0.0,1.0,64,0.00,,,0.00,127,weatherlink.com 1.10,2013-09-13 16:04:00,
2013-09-13 12:19:00,87.1,73.0,29.87,South,174,0.0,7.0,63,0.00,,,0.00,895,weatherlink.com 1.10,2013-09-13 16:19:00,
2013-09-13 12:35:00,86.9,71.0,29.86,WSW,241,0.0,5.0,60,0.00,,,0.00,902,weatherlink.com 1.10,2013-09-13 16:35:00,
2013-09-13 12:50:00,88.1,72.0,29.86,SW,226,0.0,5.0,60,0.00,,,0.00,912,weatherlink.com 1.10,2013-09-13 16:50:00,
2013-09-13 13:05:00,88.9,73.0,29.85,WSW,245,0.0,4.0,60,0.00,,,0.00,935,weatherlink.com 1.10,2013-09-13 17:05:00,
2013-09-13 13:20:00,88.8,71.0,29.84,SW,236,0.0,5.0,55,0.00,,,0.00,932,weatherlink.com 1.10,2013-09-13 17:20:00,
2013-09-13 13:50:00,90.4,72.0,29.83,South,180,3.0,7.0,54,0.00,,,0.00,1004,weatherlink.com 1.10,2013-09-13 17:50:00,
2013-09-13 14:05:00,90.7,72.0,29.82,NE,48,0.0,3.0,55,0.00,,,0.00,1035,weatherlink.com 1.10,2013-09-13 18:05:00,
2013-09-13 14:20:00,91.5,72.0,29.82,SW,232,0.0,6.0,53,0.00,,,0.00,1023,weatherlink.com 1.10,2013-09-13 18:20:00,
2013-09-13 14:35:00,91.8,73.0,29.82,WSW,248,0.0,5.0,54,0.00,,,0.00,290,weatherlink.com 1.10,2013-09-13 18:35:00,
2013-09-13 14:50:00,89.3,72.0,29.81,North,355,0.0,1.0,57,0.00,,,0.00,951,weatherlink.com 1.10,2013-09-13 18:50:00,
2013-09-13 15:05:00,89.5,71.0,29.80,WNW,300,0.0,1.0,54,0.00,,,0.00,819,weatherlink.com 1.10,2013-09-13 19:05:00,
2013-09-13 15:20:00,91.3,71.0,29.79,West,275,1.0,2.0,52,0.00,,,0.00,796,weatherlink.com 1.10,2013-09-13 19:20:00,
2013-09-13 15:35:00,90.3,69.0,29.79,NNW,343,0.0,4.0,50,0.00,,,0.00,788,weatherlink.com 1.10,2013-09-13 19:35:00,
2013-09-13 15:50:00,92.3,72.0,29.78,SSW,198,3.0,3.0,51,0.00,,,0.00,754,weatherlink.com 1.10,2013-09-13 19:50:00,
2013-09-13 16:05:00,92.1,70.0,29.78,SW,228,2.0,5.0,49,0.00,,,0.00,693,weatherlink.com 1.10,2013-09-13 20:05:00,
2013-09-13 16:20:00,92.4,71.0,29.77,South,181,0.0,5.0,50,0.00,,,0.00,643,weatherlink.com 1.10,2013-09-13 20:20:00,
2013-09-13 16:35:00,92.1,69.0,29.77,South,189,0.0,6.0,47,0.00,,,0.00,585,weatherlink.com 1.10,2013-09-13 20:35:00,
2013-09-13 16:50:00,91.8,69.0,29.77,South,187,1.0,3.0,48,0.00,,,0.00,547,weatherlink.com 1.10,2013-09-13 20:50:00,
2013-09-13 17:05:00,92.3,70.0,29.77,SW,219,0.0,4.0,48,0.00,,,0.00,255,weatherlink.com 1.10,2013-09-13 21:05:00,
2013-09-13 17:20:00,92.0,69.0,29.77,SSW,196,0.0,3.0,47,0.00,,,0.00,153,weatherlink.com 1.10,2013-09-13 21:20:00,
2013-09-13 17:35:00,91.3,70.0,29.77,SSW,196,0.0,1.0,50,0.00,,,0.00,200,weatherlink.com 1.10,2013-09-13 21:35:00,
2013-09-13 17:50:00,90.8,68.0,29.77,South,191,0.0,3.0,48,0.00,,,0.00,206,weatherlink.com 1.10,2013-09-13 21:50:00,
2013-09-13 18:06:00,90.6,70.0,29.77,South,188,0.0,3.0,51,0.00,,,0.00,225,weatherlink.com 1.10,2013-09-13 22:06:00,
2013-09-13 18:20:00,89.8,71.0,29.77,South,183,1.0,6.0,54,0.00,,,0.00,60,weatherlink.com 1.10,2013-09-13 22:20:00,
2013-09-13 18:35:00,88.8,71.0,29.78,South,184,0.0,4.0,56,0.00,,,0.00,42,weatherlink.com 1.10,2013-09-13 22:35:00,
2013-09-13 18:50:00,88.1,71.0,29.78,South,175,1.0,4.0,57,0.00,,,0.00,53,weatherlink.com 1.10,2013-09-13 22:50:00,
2013-09-13 19:05:00,87.9,71.0,29.78,South,188,0.0,6.0,57,0.00,,,0.00,23,weatherlink.com 1.10,2013-09-13 23:05:00,
2013-09-13 19:20:00,87.6,71.0,29.78,South,176,0.0,3.0,58,0.00,,,0.00,19,weatherlink.com 1.10,2013-09-13 23:20:00,
2013-09-13 19:35:00,87.1,71.0,29.78,South,176,0.0,3.0,59,0.00,,,0.00,0,weatherlink.com 1.10,2013-09-13 23:35:00,
2013-09-13 19:50:00,86.5,73.0,29.79,SE,134,0.0,3.0,64,0.00,,,0.00,0,weatherlink.com 1.10,2013-09-13 23:50:00,
2013-09-13 20:05:00,84.7,73.0,29.80,SE,136,0.0,6.0,69,0.00,,,0.00,0,weatherlink.com 1.10,2013-09-14 00:05:00,
2013-09-13 20:20:00,83.8,73.0,29.80,SE,144,0.0,7.0,71,0.00,,,0.00,0,weatherlink.com 1.10,2013-09-14 00:20:00,
2013-09-13 20:35:00,83.3,73.0,29.80,SSE,156,0.0,9.0,72,0.00,,,0.00,0,weatherlink.com 1.10,2013-09-14 00:35:00,
2013-09-13 20:50:00,83.1,74.0,29.81,South,176,0.0,1.0,73,0.00,,,0.00,0,weatherlink.com 1.10,2013-09-14 00:50:00,
2013-09-13 21:05:00,83.0,74.0,29.82,SW,215,0.0,2.0,74,0.00,,,0.00,0,weatherlink.com 1.10,2013-09-14 01:05:00,
2013-09-13 21:20:00,82.3,74.0,29.83,ENE,74,0.0,4.0,76,0.00,,,0.00,0,weatherlink.com 1.10,2013-09-14 01:20:00,
2013-09-13 21:35:00,79.2,74.0,29.84,NNE,17,0.0,5.0,84,0.50,,,0.50,0,weatherlink.com 1.10,2013-09-14 01:35:00,
2013-09-13 21:50:00,77.6,74.0,29.84,ENE,74,1.0,5.0,88,0.91,,,0.91,0,weatherlink.com 1.10,2013-09-14 01:50:00,
2013-09-13 22:05:00,77.2,74.0,29.84,East,98,0.0,3.0,90,0.91,,,0.91,0,weatherlink.com 1.10,2013-09-14 02:05:00,
2013-09-13 22:20:00,77.1,74.0,29.84,East,90,0.0,3.0,90,0.91,,,0.91,0,weatherlink.com 1.10,2013-09-14 02:20:00,
2013-09-13 22:35:00,76.9,74.0,29.84,East,90,0.0,1.0,91,0.38,,,0.91,0,weatherlink.com 1.10,2013-09-14 02:35:00,
2013-09-13 22:50:00,76.8,74.0,29.83,East,90,0.0,1.0,91,0.00,,,0.91,0,weatherlink.com 1.10,2013-09-14 02:50:00,
2013-09-13 23:05:00,76.9,75.0,29.83,ESE,109,0.0,1.0,92,0.00,,,0.91,0,weatherlink.com 1.10,2013-09-14 03:05:00,
2013-09-13 23:20:00,77.0,75.0,29.83,SE,136,0.0,3.0,92,0.00,,,0.91,0,weatherlink.com 1.10,2013-09-14 03:20:00,
2013-09-13 23:35:00,76.9,75.0,29.83,SE,135,0.0,0.0,92,0.00,,,0.91,0,weatherlink.com 1.10,2013-09-14 03:35:00,
2013-09-13 23:50:00,76.9,75.0,29.82,SE,135,0.0,1.0,92,0.00,,,0.91,0,weatherlink.com 1.10,2013-09-14 03:50:00,